Salem, OR

2:51 AM PST on December 14, 2017 (GMT -0800)
McNary

Weather History for KSLE - July, 2012

Change the Weather History Date:

Wednesday, July 18, 2012

  Actual Average Record
Temperature  
Mean Temperature 67 °F 68 °F  
Max Temperature 73 °F 83 °F 104 °F (1956)
Min Temperature 61 °F 54 °F 38 °F (1962)
Degree Days  
Heating Degree Days 0 1  
Month to date heating degree days 17 23  
Since 1 June heating degree days 176 153  
Since 1 July heating degree days 17 23  
Cooling Degree Days 2 4  
Month to date cooling degree days 56 53  
Year to date cooling degree days 75 90  
Since 1 June cooling degree days 71 81  
Growing Degree Days 17 (Base 50)    
Moisture  
Dew Point 55 °F    
Average Humidity 71    
Maximum Humidity 84    
Minimum Humidity 57    
Precipitation  
Precipitation T in 0.01 in 1.80 in (1987)
Month to date precipitation 0.07 0.33  
Year to date precipitation 32.10 21.42  
Snow  
Snow 0.00 in - - ()
Month to date snowfall 0.0  
Since 1 June snowfall 0.0  
Snow Depth 0.00 in    
Sea Level Pressure  
Sea Level Pressure 30.01 in    
Wind  
Wind Speed 4 mph (SW)    
Max Wind Speed 9 mph    
Max Gust Speed 10 mph    
Visibility 10 miles    
Events      
T = Trace of Precipitation, MM = Missing Value Source: NWS Daily Summary

Daily Weather History Graph

Daily Weather History Graph

Search for Another Location

Airport or City:

Trip Planner

Search our weather history database for the weather conditions in past years. The results will help you decide how hot, cold, wet, or windy it might be!

Date:

Astronomy

Jul. 18, 2012 Rise Set
Actual Time 5:43 AM PDT 8:52 PM PDT
Civil Twilight 5:07 AM PDT 9:27 PM PDT
Nautical Twilight 4:22 AM PDT 10:13 PM PDT
Astronomical Twilight 3:26 AM PDT 11:08 PM PDT
Moon 5:24 AM PDT (7/18) 8:22 PM PDT (7/18)
Length of Visible Light 16h 20m
Length of Day
15h 09m
Waning Crescent, 0% of the Moon is Illuminated
Jul 18
Waning Crescent
Jul 18
New
Jul 26
First Quarter
Aug 1
Full
Aug 9
Last Quarter

Hourly Weather History & Observations

Time (PDT) Temp. Dew Point Humidity Pressure Visibility Wind Dir Wind Speed Gust Speed Precip Events Conditions
12:56 AM 61.0 °F 54.0 °F 78% 29.99 in 10.0 mi SSW 6.9 mph - N/A   Overcast
1:56 AM 61.0 °F 54.0 °F 78% 29.99 in 10.0 mi SSW 5.8 mph - N/A   Overcast
2:47 AM 60.8 °F 53.6 °F 77% 30.00 in 10.0 mi South 3.5 mph - N/A   Overcast
2:56 AM 61.0 °F 54.0 °F 78% 29.99 in 10.0 mi SSE 3.5 mph - N/A   Overcast
3:56 AM 61.0 °F 54.0 °F 78% 30.00 in 10.0 mi South 5.8 mph - N/A   Overcast
4:56 AM 61.0 °F 54.0 °F 78% 30.01 in 10.0 mi South 5.8 mph - 0.00 in   Overcast
5:56 AM 61.0 °F 55.0 °F 81% 30.00 in 10.0 mi Variable 3.5 mph - N/A   Overcast
6:56 AM 62.1 °F 55.0 °F 78% 30.00 in 10.0 mi Calm Calm - N/A   Overcast
7:56 AM 62.1 °F 55.0 °F 78% 30.02 in 10.0 mi SSE 4.6 mph - N/A   Overcast
8:43 AM 62.6 °F 53.6 °F 72% 30.01 in 10.0 mi SW 4.6 mph - N/A   Overcast
8:56 AM 64.0 °F 54.0 °F 70% 30.01 in 10.0 mi SW 4.6 mph - N/A   Overcast
9:34 AM 64.4 °F 53.6 °F 68% 30.02 in 10.0 mi WSW 4.6 mph - N/A   Overcast
9:56 AM 64.9 °F 54.0 °F 68% 30.02 in 10.0 mi WNW 5.8 mph - N/A   Overcast
10:56 AM 64.9 °F 54.0 °F 68% 30.04 in - Variable 4.6 mph - N/A   Overcast
11:56 AM 66.0 °F 54.0 °F 65% 30.04 in 10.0 mi Calm Calm - N/A   Overcast
12:54 PM 66.2 °F 55.4 °F 68% 30.02 in 10.0 mi Calm Calm - N/A   Unknown
12:56 PM 66.9 °F 55.9 °F 68% 30.02 in 10.0 mi Variable 3.5 mph - N/A   Unknown
1:05 PM 66.2 °F 55.4 °F 68% 30.02 in 10.0 mi South 4.6 mph - N/A   Overcast
1:56 PM 69.1 °F 55.9 °F 63% 30.02 in 10.0 mi Calm Calm - N/A   Overcast
2:38 PM 69.8 °F 57.2 °F 64% 30.01 in 10.0 mi SSW 3.5 mph - N/A   Overcast
2:56 PM 73.0 °F 57.0 °F 57% 30.01 in 10.0 mi West 5.8 mph - N/A   Mostly Cloudy
3:56 PM 70.0 °F 57.0 °F 63% 30.01 in 10.0 mi Calm Calm - N/A   Overcast
4:56 PM 71.1 °F 57.0 °F 61% 30.01 in 10.0 mi West 6.9 mph - N/A   Overcast
5:56 PM 70.0 °F 57.0 °F 63% 30.01 in 10.0 mi WSW 3.5 mph - N/A   Overcast
6:56 PM 71.1 °F 57.0 °F 61% 30.00 in 10.0 mi West 4.6 mph - N/A   Overcast
7:56 PM 69.1 °F 59.0 °F 70% 30.00 in 10.0 mi West 8.1 mph - N/A   Overcast
8:56 PM 66.0 °F 57.9 °F 75% 30.01 in 10.0 mi West 5.8 mph - N/A   Mostly Cloudy
9:56 PM 64.0 °F 57.0 °F 78% 30.03 in 10.0 mi West 5.8 mph - N/A   Clear
10:56 PM 63.0 °F 55.9 °F 78% 30.03 in 10.0 mi West 3.5 mph - N/A   Scattered Clouds
11:53 PM 62.6 °F 55.4 °F 77% 30.03 in 10.0 mi West 4.6 mph - N/A   Overcast
11:56 PM 62.1 °F 55.9 °F 80% 30.03 in 10.0 mi West 3.5 mph - N/A   Overcast